This demonstration page uses our WeatherBlox Daily Observations layout. Learn more.

Left ArrowRight Arrow

40.92945, -100.16068

Hourly Observations for February 8, 2015

Temp ( °F °C ) Dew Point ( °F °C ) Humidity (%) Winds ( mph kmh ) Pressure ( in mb ) Visibility ( mi km ) Precip ( " mm )
12:15 am 00:15 Clear 54 12.1 31 -0.4 42 42 W 14 22 29.71 1006 10 16 N/A
12:35 am 00:35 Clear 50 10 31 -0.4 49 49 W 10 17 29.74 1007 10 16 N/A
12:55 am 00:55 Clear 46 7.5 32 -0.2 58 58 NW 10 17 29.74 1007 10 16 N/A
1:15 am 01:15 Clear 49 9.2 31 -0.4 51 51 WNW 15 24 29.74 1007 10 16 N/A
1:35 am 01:35 Clear 47 8.5 31 -0.5 53 53 WNW 12 19 29.77 1008 10 16 N/A
1:55 am 01:55 Clear 44 6.8 31 -0.3 61 61 W 13 20 29.80 1009 10 16 N/A
2:15 am 02:15 Clear 49 9.7 31 -0.5 49 49 WNW 15 24 29.77 1008 10 16 N/A
2:35 am 02:35 Clear 49 9.5 32 0 52 52 WNW 16 26 29.77 1008 10 16 N/A
2:55 am 02:55 Clear 47 8.5 32 0 55 55 WNW 17 28 29.80 1009 10 16 N/A
3:15 am 03:15 Clear 46 8 32 0 57 57 WNW 15 24 29.80 1009 10 16 N/A
3:35 am 03:35 Clear 46 7.6 32 0 59 59 WNW 17 28 29.80 1009 10 16 N/A
3:55 am 03:55 Clear 44 6.9 32 0 62 62 WNW 14 22 29.85 1011 10 16 N/A
4:15 am 04:15 Clear 42 5.6 32 0 68 68 WNW 13 20 29.85 1011 10 16 N/A
4:35 am 04:35 Clear 39 4 32 -0.2 74 74 WNW 12 19 29.88 1012 10 16 N/A
4:55 am 04:55 Clear 39 3.8 32 0 77 77 W 12 19 29.88 1012 10 16 N/A
5:15 am 05:15 Clear 39 4.1 32 0 75 75 W 12 19 29.88 1012 10 16 N/A
5:35 am 05:35 Clear 40 4.4 32 -0.1 73 73 W 13 20 29.91 1013 10 16 N/A
5:55 am 05:55 Clear 41 5 32 0 70 70 W 10 17 29.91 1013 10 16 N/A
6:15 am 06:15 Clear 39 4 32 0 75 75 W 12 19 29.94 1014 10 16 N/A
6:35 am 06:35 Clear 37 3 32 -0.2 80 80 W 9 15 29.94 1014 10 16 N/A
6:55 am 06:55 Clear 35 1.7 31 -0.8 84 84 WNW 6 9 29.97 1015 10 16 N/A
7:15 am 07:15 Clear 34 1 30 -0.9 87 87 NW 8 13 29.97 1015 10 16 N/A
7:35 am 07:35 Clear 34 0.9 30 -1.2 86 86 NW 5 7 29.97 1015 10 16 N/A
7:55 am 07:55 Sunny 34 1.1 31 -0.8 87 87 W 6 9 29.97 1015 10 16 N/A
8:15 am 08:15 Sunny 35 1.8 31 -0.7 84 84 WNW 5 7 30.00 1016 10 16 N/A
8:35 am 08:35 Sunny 37 2.8 32 0 82 82 NW 8 13 29.97 1015 10 16 N/A
8:55 am 08:55 Sunny 39 3.8 33 0.5 79 79 NW 7 11 29.97 1015 10 16 N/A
9:15 am 09:15 Sunny 43 5.9 34 1.1 72 72 WNW 9 15 30.00 1016 10 16 N/A
9:35 am 09:35 Sunny 43 6.3 34 1 69 69 WNW 9 15 30.00 1016 10 16 N/A
9:55 am 09:55 Sunny 48 9.1 35 1.6 60 60 WNW 12 19 29.97 1015 10 16 N/A
10:15 am 10:15 Sunny 51 10.8 33 0.4 49 49 WNW 14 22 29.94 1014 10 16 N/A
10:35 am 10:35 Sunny 53 11.4 33 0.4 47 47 WNW 18 30 29.94 1014 10 16 N/A
10:55 am 10:55 Sunny 54 12 34 1 47 47 WNW 15 24 29.94 1014 10 16 N/A
11:15 am 11:15 Sunny 55 12.6 35 1.7 48 48 NW 16 26 29.91 1013 10 16 N/A
11:35 am 11:35 Sunny 56 13.1 35 1.8 46 46 WNW 14 22 29.94 1014 10 16 N/A
11:55 am 11:55 Sunny 57 13.8 36 2.1 45 45 WNW 16 26 29.94 1014 10 16 N/A
12:15 pm 12:15 Sunny 58 14.7 36 2.4 44 44 WNW 13 20 29.91 1013 10 16 N/A
12:35 pm 12:35 Sunny 61 16 36 2.1 39 39 NW 13 20 29.88 1012 10 16 N/A
12:55 pm 12:55 Sunny 62 16.6 35 1.9 37 37 WNW 15 24 29.88 1012 10 16 N/A
1:15 pm 13:15 Sunny 62 16.5 36 2.4 39 39 WNW 13 20 29.88 1012 10 16 N/A
1:35 pm 13:35 Sunny 63 17 36 2.1 37 37 WNW 14 22 29.88 1012 10 16 N/A
1:55 pm 13:55 Sunny 64 17.5 35 1.4 34 34 WNW 15 24 29.88 1012 10 16 N/A
2:15 pm 14:15 Sunny 64 18 35 1.8 34 34 WNW 14 22 29.88 1012 10 16 N/A
2:35 pm 14:35 Sunny 65 18.2 35 1.4 33 33 NW 15 24 29.88 1012 10 16 N/A
2:55 pm 14:55 Sunny 65 18.6 34 0.9 31 31 WNW 14 22 29.88 1012 10 16 N/A
3:15 pm 15:15 Sunny 66 19 33 0.5 29 29 NNW 16 26 29.88 1012 10 16 N/A
3:35 pm 15:35 Sunny 66 19.1 33 0.7 29 29 NW 15 24 29.88 1012 10 16 N/A
3:55 pm 15:55 Sunny 66 19.1 32 0.1 28 28 NNW 20 31 29.88 1012 10 16 N/A
4:15 pm 16:15 Sunny 66 18.7 32 0.1 29 29 NNW 20 31 29.88 1012 10 16 N/A
4:35 pm 16:35 Sunny 65 18.2 34 1.2 32 32 NNW 15 24 29.91 1013 10 16 N/A
4:55 pm 16:55 Sunny 64 17.5 33 0.4 32 32 N 16 26 29.91 1013 10 16 N/A
5:15 pm 17:15 Sunny 62 16.7 33 0.5 34 34 N 14 22 29.91 1013 10 16 N/A
5:35 pm 17:35 Sunny 60 15.3 34 1 38 38 N 13 20 29.97 1015 10 16 N/A
5:55 pm 17:55 Sunny 56 13.2 35 1.4 45 45 N 10 17 30.00 1016 10 16 N/A
6:15 pm 18:15 Clear 50 9.9 34 1.3 55 55 N 9 15 30.00 1016 10 16 N/A
6:35 pm 18:35 Clear 50 9.9 34 1.1 55 55 N 9 15 30.06 1018 10 16 N/A
6:55 pm 18:55 Clear 46 7.9 33 0.7 61 61 N 9 15 30.06 1018 10 16 N/A
7:15 pm 19:15 Clear 44 6.9 32 0.1 62 62 N 6 9 30.09 1019 10 16 N/A
7:35 pm 19:35 Clear 42 5.6 32 0 68 68 NNW 5 7 30.09 1019 10 16 N/A
7:55 pm 19:55 Clear 40 4.3 31 -0.4 72 72 W 6 9 30.09 1019 10 16 N/A
8:15 pm 20:15 Clear 41 4.8 32 -0.1 71 71 W 5 7 30.09 1019 10 16 N/A
8:35 pm 20:35 Clear 39 4 32 -0.1 75 75 NNW 5 7 30.09 1019 10 16 N/A
8:55 pm 20:55 Clear 38 3.5 30 -1 73 73 N 5 7 30.15 1021 10 16 N/A
9:15 pm 21:15 Clear 37 2.8 30 -1 76 76 N 6 9 30.15 1021 10 16 N/A
9:35 pm 21:35 Clear 35 1.8 31 -0.8 83 83 WNW 3 6 30.15 1021 10 16 N/A
9:55 pm 21:55 Clear 38 3.4 31 -0.5 76 76 W 5 7 30.18 1022 10 16 N/A
10:15 pm 22:15 Clear 37 3 31 -0.3 79 79 W 5 7 30.18 1022 10 16 N/A
10:35 pm 22:35 Clear 35 1.6 31 -0.8 84 84 Calm 30.18 1022 10 16 N/A
10:55 pm 22:55 Clear 34 1.1 29 -1.5 83 83 W 3 6 30.21 1023 10 16 N/A
11:15 pm 23:15 Clear 33 0.8 30 -1.2 87 87 WSW 6 9 30.21 1023 10 16 N/A
11:35 pm 23:35 Clear 32 0 29 -1.6 89 89 W 5 7 30.21 1023 10 16 N/A
11:55 pm 23:55 Clear 32 -0.1 29 -1.8 88 88 Calm 30.21 1023 10 16 N/A

Powered by AerisWeather